Location: Lane
(33.5226°N, 79.8788°W)
Time: 07:04:49
(UTC+00:00)

Explorer 7 - Pass Details

Date: 07 October 2022
Orbit: 481 x 665 km, 50.3° (Epoch: 28 November)

Event Time Altitude Azimuth Distance (km) Brightness Sun altitude
Rises 16:26:43 0° 297° (WNW) 3,001 10.3 49.6°
Reaches altitude 10° 16:30:56 10° 332° (NNW) 2,083 9.5 49.9°
Maximum altitude 16:32:23 11° 350° (N) 1,998 9.4 49.9°
Drops below altitude 10° 16:33:50 10° 8° (N) 2,071 9.5 50.0°
Sets 16:37:59 0° 43° (NE) 2,952 10.3 50.2°
